Regional Weather Roundup
Issued by NWS

Home | Current Version | Previous Version | Graphics & Text | Print | Product List | Glossary On
Versions: 1 2 3 4 5 6 7 8 9 10 11 12 13 14 15 16 17 18 19 20 21 22 23 24 25 26 27
000
ASUS45 KCYS 212310
RWRWY

WYOMING REGIONAL WEATHER ROUNDUP
NATIONAL WEATHER SERVICE CHEYENNE WY
400 PM MST TUE FEB 21 2017

NOTE:  "FAIR" INDICATES FEW OR NO CLOUDS BELOW 12,000 FEET
WITH NO SIGNIFICANT WEATHER AND/OR OBSTRUCTIONS TO VISIBILITY.

WYZ001-220000-
YELLOWSTONE NATIONAL PARK

CITY           SKY/WX    TMP DP  RH WIND       PRES   REMARKS
LK YELLOWSTONE   N/A     29  25  85 VRB5      29.82S WCI  24
W YELLOWSTONE  NOT AVBL

$$
WYZ002>013-054>058-071-098>099-220000-
NORTHERN WYOMING

CITY           SKY/WX    TMP DP  RH WIND       PRES   REMARKS
JACKSON        CLOUDY    34  28  80 S20       29.89R WCI  22
CODY           LGT RAIN  41  31  67 SW12G20   29.79F
GREYBULL       FAIR      50  33  52 NW8       29.74F
WORLAND        CLOUDY    49  36  61 NW3       29.75S
SHERIDAN       FAIR      53  35  50 SW8       29.73R
BUFFALO        FAIR      54  30  40 S8        29.75R
GILLETTE       FAIR      60  27  28 W25G32    29.71R
HULETT         FAIR      59  28  31 W13       29.69F
NEWCASTLE      FAIR      61  27  27 W18G32    29.75F

$$
WYZ014>020-022>026-101>103-220000-
CENTRAL WYOMING

CITY           SKY/WX    TMP DP  RH WIND       PRES   REMARKS
BIG PINEY      LGT SNOW  35  32  88 W21       29.88F WCI  24
PINEDALE       LGT RAIN  36  32  87 SW7       29.88F WCI  30
DUBOIS         SNOW      30  28  93 NW20G32   29.83R VSB 1/4 WCI  18
LANDER         LGT RAIN  42  35  76 S30G44    29.81F
RIVERTON       PTSUNNY   48  31  51 W16       29.80S
CASPER         FAIR      58  24  27 SW38G53   29.82F
DOUGLAS        FAIR      61  27  27 SW33G40   29.82F

$$
WYZ021-027>030-104>119-220000-
SOUTHERN WYOMING

CITY           SKY/WX    TMP DP  RH WIND       PRES   REMARKS
EVANSTON       LGT RAIN  41  27  57 SW22G38   29.90F
KEMMERER         N/A     41  30  65 SW24G30   29.88F
FORT BRIDGER   MOCLDY    46  28  50 SW23G33   29.95F
ROCK SPRINGS   FAIR      50  29  44 SW25G36   29.90F
DIXON            N/A     51  31  45 SW29G39   30.05F
RAWLINS        FAIR      50  29  44 SW35G47   29.94F
SARATOGA       FAIR      50  27  40 SW24G39   29.98F
LARAMIE        FAIR      51  21  30 SW24G36   29.99F
CHEYENNE       FAIR      59  15  18 W22G37    29.98F
TORRINGTON     FAIR      68  12  11 W28G37    29.83F
PINE BLUFFS    FAIR      64  14  14 MISG      29.94S

$$




USA.gov is the U.S. government's official web portal to all federal, state and local government web resources and services.